CAPE
2074 2136 2199 2129 2009 1916 1856 1880 1895 1837 1776 1716 1642 1570 1443 1554 1570 1585 1637 1614 1565 1525 1541 1538 1500 1353 1206 1151 1178 1284 1354 1503 1685 1766 1770 1795 1811 1797 1777 1774 1777 1793 1788 1750 1659 1549 1502 1436 1333 1212 1048 982 968 913 844 751 736 728 640 615 584 469 238 0 0 0 0 0 0 0 0 0 0 0 0 0 0 0 0 0 0 0 0 0 0
2134 2126 2174 2232 2119 2002 1935 1936 1945 1928 1831 1756 1698 1624 1478 1482 1659 1722 1691 1725 1724 1676 1648 1593 1569 1445 1316 1221 1188 1325 1412 1477 1587 1699 1776 1784 1805 1826 1828 1819 1781 1803 1801 1801 1704 1583 1496 1443 1336 1240 1144 1117 1099 1061 886 780 758 754 700 634 573 491 385 0 0 0 0 0 0 0 0 0 0 0 0 0 0 0 0 0 0 0 0 0 0
1518 2066 2309 2199 2311 2144 2084 2014 2045 2044 1949 1843 1782 1715 1629 1533 1644 1783 1832 1843 1835 1812 1793 1756 1705 1641 1509 1372 1222 1342 1454 1512 1575 1675 1746 1770 1771 1780 1809 1816 1809 1810 1812 1803 1739 1610 1500 1419 1372 1284 1223 1226 1177 945 833 842 820 784 725 618 549 478 388 0 0 0 0 0 0 0 0 0 0 0 0 0 0 0 0 0 0 0 0 0 0
1611 1663 2177 2342 2445 2401 2287 2168 2176 2181 2101 2028 1937 1870 1837 1765 1708 1772 1892 1946 1958 1959 1930 1893 1824 1743 1645 1485 1324 1378 1477 1554 1592 1653 1742 1768 1766 1775 1802 1794 1773 1762 1764 1770 1748 1643 1515 1406 1366 1331 1331 1266 1038 882 878 822 640 620 580 530 466 454 362 0 0 0 0 0 0 0 0 0 0 0 0 0 0 0 0 0 0 0 0 0 0
2215 2286 2144 2189 1922 2574 2444 2400 2362 2301 2272 2231 2165 2084 2006 2024 1962 1885 1886 1930 1984 2055 2064 2023 1946 1880 1771 1640 1508 1439 1485 1570 1640 1703 1740 1757 1774 1795 1800 1788 1772 1767 1776 1764 1735 1654 1510 1419 1384 1359 1340 1109 950 893 870 767 613 606 570 473 400 249 0 0 0 0 0 0 0 0 0 0 0 0 0 0 0 0 0 0 0 0 0 0 0
2071 2167 2220 2233 2169 1968 2350 2423 2518 2466 2501 2453 2386 2295 2221 2196 2188 2145 2077 2008 2028 2058 2090 2078 2000 1959 1888 1770 1661 1606 1564 1567 1632 1729 1787 1805 1808 1815 1776 1759 1739 1736 1759 1771 1764 1702 1530 1424 1389 1360 1136 1039 957 888 843 690 459 342 134 0 0 0 0 0 0 0 0 0 0 0 0 0 0 0 0 0 0 1 0 0 0 0 0 0 0
1990 1868 1939 1889 1872 1908 1932 2334 2426 2695 2697 2726 2714 2607 2498 2397 2328 2293 2272 2233 2162 2106 2124 2128 2093 2047 1989 1882 1760 1712 1691 1673 1674 1722 1788 1821 1837 1823 1801 1764 1748 1756 1747 1786 1794 1762 1642 1434 1374 1269 1158 1058 951 890 825 651 475 0 0 0 0 0 0 0 0 0 0 0 0 0 0 0 0 0 0 0 0 2 3 0 0 0 0 0 0
1599 1633 1518 1344 1206 1444 1714 1424 2201 2642 2833 2825 2847 2867 2828 2719 2593 2472 2395 2350 2337 2293 2237 2180 2177 2137 2096 2016 1916 1842 1800 1782 1782 1781 1784 1826 1839 1832 1811 1789 1781 1766 1782 1798 1774 1758 1691 1502 1317 1196 1128 1037 931 971 889 735 549 402 350 0 0 0 0 0 0 0 0 0 0 0 0 0 0 0 0 0 0 2 0 0 0 0 0 0 0
1165 1392 1375 761 625 742 903 981 2033 2409 2700 2848 2877 2866 2901 2900 2858 2757 2614 2510 2459 2451 2435 2376 2296 2238 2200 2149 2088 2036 1976 1950 1914 1843 1821 1805 1848 1848 1839 1835 1802 1809 1818 1812 1757 1720 1682 1593 1399 1257 1147 1055 983 1031 981 797 617 407 384 0 0 0 0 0 0 0 0 0 0 0 0 0 0 0 0 0 0 0 0 0 0 0 0 0 0
436 531 628 390 269 254 381 943 1321 2114 2752 2978 2956 2945 2929 2912 2895 2831 2758 2688 2642 2573 2514 2497 2455 2414 2368 2309 2252 2179 2107 2080 2051 1995 1861 1828 1831 1829 1844 1836 1845 1850 1837 1826 1766 1672 1662 1650 1538 1390 1203 1059 1062 1106 1055 860 695 384 0 0 0 0 0 0 0 0 0 0 0 0 0 0 0 0 0 0 0 0 0 0 0 0 0 0 0
614 775 629 518 499 400 445 605 974 1724 2438 2623 3061 3085 3089 3073 3011 2935 2859 2792 2744 2710 2649 2549 2485 2459 2461 2387 2323 2242 2204 2179 2176 2117 2019 1927 1857 1817 1830 1834 1839 1845 1845 1822 1761 1675 1622 1623 1594 1464 1258 1121 1150 1152 1096 892 744 454 80 0 0 0 0 0 0 0 0 0 0 0 0 0 0 0 0 0 0 0 0 0 0 0 0 0 0
338 1024 1072 855 777 1131 1345 1504 1926 2312 2681 2973 3034 3064 3112 3144 3120 3070 3004 2934 2865 2789 2726 2642 2574 2520 2476 2417 2353 2295 2225 2216 2230 2188 2126 2035 1989 1883 1808 1826 1829 1830 1834 1824 1786 1695 1590 1561 1538 1445 1315 1241 1244 1191 1104 890 719 499 40 0 0 0 0 0 0 0 0 0 0 0 0 0 0 0 2 2 2 1 0 0 0 0 0 0 0
109 422 1142 1560 1660 1776 2098 2717 3026 3188 3253 3161 2962 2817 2830 2932 3036 3081 3048 3013 2960 2844 2746 2705 2633 2571 2508 2458 2392 2327 2258 2238 2247 2224 2155 2115 2075 1990 1811 1766 1801 1821 1821 1823 1797 1729 1638 1573 1518 1442 1354 1327 1282 1210 1122 858 687 564 296 0 0 0 0 0 0 0 0 0 0 0 0 0 0 0 0 0 0 1 0 0 0 0 0 0 0
178 148 0 258 736 1140 1329 1545 1829 2356 2872 3066 3014 2887 2766 2714 2842 2994 3050 3032 2970 2868 2804 2730 2675 2612 2550 2501 2449 2411 2343 2306 2283 2245 2195 2152 2123 2054 1918 1754 1719 1755 1762 1769 1748 1700 1650 1606 1538 1450 1380 1320 1270 1254 1143 814 672 605 397 106 0 0 0 0 0 0 0 0 0 0 0 0 0 0 0 0 0 0 0 0 0 0 0 0 0
133 143 99 203 246 404 839 1163 1304 1354 1433 1620 1939 2374 2605 2678 2703 2712 2893 2984 2949 2889 2799 2747 2687 2645 2551 2466 2430 2445 2404 2326 2290 2276 2214 2182 2159 2084 1989 1846 1726 1684 1672 1682 1669 1658 1638 1591 1529 1439 1328 1264 1231 1199 1093 832 702 631 492 339 34 0 0 0 0 0 0 0 0 0 0 0 0 0 0 0 0 0 0 0 0 0 0 0 0
81 91 117 204 269 313 374 488 744 1086 1366 1452 1523 1722 1906 2046 2048 1981 2174 2475 2597 2679 2720 2670 2636 2628 2540 2473 2436 2447 2445 2340 2276 2277 2266 2249 2215 2135 2061 1943 1788 1759 1737 1707 1694 1637 1651 1589 1524 1446 1371 1305 1271 1226 1053 774 802 829 638 472 326 214 133 0 0 0 0 0 0 0 0 0 0 0 0 0 0 0 0 0 0 0 0 0 0
125 82 87 49 54 128 236 328 383 499 680 913 1196 1477 1714 1987 2071 2023 1930 2050 2220 2583 2629 2662 2639 2617 2534 2472 2426 2421 2484 2384 2338 2341 2323 2276 2191 2154 2073 2001 1885 1834 1840 1777 1740 1678 1636 1601 1514 1453 1384 1335 1270 1191 991 769 880 876 699 634 507 332 251 38 0 0 0 0 103 116 110 104 61 0 0 0 0 0 0 0 0 0 0 0 0
292 218 106 0 0 2 56 233 365 445 508 556 591 613 562 769 1120 1564 1569 1274 1578 2176 2120 2606 2622 2606 2576 2497 2479 2448 2464 2408 2344 2356 2331 2310 2267 2207 2148 2027 1962 1904 1894 1817 1759 1690 1620 1639 1532 1446 1356 1292 1211 1083 910 804 878 883 809 695 631 567 365 179 0 0 0 79 140 162 161 152 150 38 0 0 0 0 0 0 0 0 0 0 0
451 341 240 155 61 52 65 184 349 462 530 553 564 570 554 440 278 674 911 724 477 516 1234 1802 2290 2527 2554 2609 2534 2504 2461 2411 2335 2367 2384 2366 2332 2252 2179 2080 1975 1918 1895 1816 1759 1689 1641 1619 1574 1474 1406 1298 1155 1036 956 825 898 941 897 801 706 623 420 217 26 7 110 128 158 159 176 172 141 10 0 0 0 0 0 0 0 0 0 0 0
626 560 523 443 366 307 290 307 293 279 401 451 472 490 486 439 524 387 63 87 200 339 430 441 1149 2108 2076 2433 2482 2508 2455 2381 2340 2403 2438 2430 2376 2297 2176 2089 1949 1965 1916 1856 1795 1743 1689 1639 1618 1536 1423 1346 1298 1120 972 838 820 905 888 807 721 640 323 255 158 79 0 120 170 183 183 151 7 0 4 0 0 0 0 0 0 0 0 0 0
771 700 581 469 422 413 413 420 382 246 252 370 400 198 311 673 607 633 588 545 548 480 490 556 549 739 1250 1862 2062 2433 2469 2445 2420 2449 2429 2442 2430 2310 2160 2105 2044 1997 1946 1881 1842 1801 1716 1671 1653 1594 1488 1387 1361 1241 1035 838 800 853 892 874 754 371 118 178 150 63 41 70 0 160 178 145 50 6 0 0 0 0 0 0 0 0 0 0 0
660 528 471 482 564 571 531 490 430 398 510 722 920 815 783 822 724 636 648 730 784 845 994 1148 742 768 862 1095 1510 2002 2423 2520 2502 2516 2486 2521 2507 2429 2256 2192 2127 2072 1951 1941 1914 1849 1748 1704 1719 1608 1482 1424 1409 1299 1147 877 697 694 770 888 779 436 244 211 207 131 118 130 160 190 202 145 74 4 1 0 0 0 0 0 0 0 0 0 0
817 836 796 781 796 780 754 685 690 820 933 954 838 564 682 810 751 617 566 602 631 661 842 956 1086 1071 840 886 888 1640 1962 2295 2213 2371 2482 2485 2548 2481 2356 2282 2220 2079 1988 1977 1964 1908 1789 1751 1726 1626 1508 1463 1428 1322 1218 1010 659 543 572 827 729 535 330 226 227 215 38 0 62 214 204 159 37 6 8 6 0 0 0 0 0 0 0 0 0
1223 1118 1056 1014 962 897 878 1008 1163 1278 1357 1278 999 954 970 955 850 756 710 667 643 622 607 729 781 706 823 614 819 942 793 1151 1741 1986 1983 2120 2171 2313 2405 2391 2330 2235 2105 2027 1994 1917 1813 1744 1735 1618 1505 1489 1464 1407 1307 1152 902 579 563 691 681 537 456 304 286 276 133 0 185 235 244 116 14 12 7 3 0 0 0 0 0 0 0 0 0
1259 1169 1141 1194 1217 1226 1218 1263 1385 1544 1496 1250 1104 991 947 893 851 854 852 769 719 683 636 488 512 629 652 777 817 633 501 778 1399 1831 2122 2090 2131 2197 2310 2428 2379 2276 2145 2113 2066 1999 1901 1822 1825 1696 1512 1477 1471 1404 1331 1212 1103 688 645 619 600 533 451 432 156 120 281 88 249 258 165 26 9 8 10 1 0 0 0 0 0 0 0 0 0
1242 1183 1088 1014 1134 1306 1444 1555 1586 1459 1233 985 870 837 780 747 755 820 827 807 804 759 664 551 433 495 593 708 814 694 512 612 806 1262 2163 2101 1942 2019 2188 2360 2340 2245 2152 2126 2108 2043 1974 1922 1902 1856 1707 1622 1580 1478 1356 1237 1122 955 664 646 608 543 526 446 285 344 276 0 169 122 30 5 1 4 5 2 0 0 0 0 0 0 0 0 0
1105 1099 1071 1115 1255 1257 1233 1380 1506 1541 1418 1098 773 722 735 732 739 694 670 710 702 662 610 533 427 456 581 692 741 798 805 657 602 651 1608 2126 1864 1842 2136 2217 2207 2204 2041 1850 1915 1967 1971 2036 1991 1916 1810 1744 1688 1579 1171 1025 1056 982 809 775 700 527 521 441 265 72 24 20 0 0 0 0 0 2 0 0 0 0 0 0 0 0 0 0 0
1135 1119 1088 1022 1069 1428 1582 1507 1249 1026 801 636 562 532 568 607 597 597 648 654 663 594 516 514 501 486 537 614 612 544 591 505 505 634 890 1589 2016 1972 1967 2123 2174 2048 2131 1820 1598 1775 1685 1854 1951 1813 1700 1586 1441 1358 1248 1072 999 974 891 851 775 641 524 410 210 154 0 19 6 5 2 0 0 4 1 0 0 0 0 0 0 0 0 0 0
1052 1205 1347 1393 1453 1457 1431 1368 1218 1034 871 719 630 616 653 716 611 564 611 672 667 645 518 445 466 511 514 509 560 581 617 545 566 543 642 1018 1583 1960 1863 1937 2054 2170 2040 2010 1493 1575 1680 1773 1858 1849 1745 1658 1598 1527 1395 1250 1121 1026 994 907 867 789 627 463 328 160 37 0 0 0 5 4 8 6 1 0 0 0 0 0 0 0 0 0 0
1040 1048 1290 1318 1464 1523 1452 1368 1202 1031 922 830 752 681 651 601 565 572 648 635 621 634 568 446 359 372 422 416 414 450 414 468 590 674 518 682 1236 1736 1788 1814 1984 2042 2001 1877 1908 1789 1658 1876 1952 1881 1826 1749 1623 1529 1366 1324 1276 1153 973 926 883 812 715 609 358 21 0 11 0 0 0 5 11 6 0 0 0 0 0 0 0 0 0 0 0
842 951 938 909 924 1165 1116 1048 1028 902 882 900 852 794 726 638 544 526 571 599 609 590 514 423 370 283 276 266 304 388 299 421 410 402 441 594 958 1347 1578 1501 1639 1651 1749 1772 1645 1823 1971 2033 1993 1936 1780 1719 1640 1446 1282 1317 1329 1164 1015 928 889 828 714 400 21 0 0 2 0 0 0 4 7 0 0 0 0 0 0 0 0 0 0 0 0
625 742 679 875 944 892 886 903 859 791 702 744 734 664 565 465 430 416 435 457 545 538 502 421 342 235 146 282 308 294 206 116 372 365 303 365 497 679 783 827 1246 1577 1684 1681 1712 1637 1711 1855 1916 2075 1869 1647 1560 1531 1494 1395 1312 1205 1173 1039 938 890 747 228 77 0 0 0 0 0 0 6 1 0 0 0 0 0 0 0 0 0 0 0 0
463 494 666 781 770 732 775 799 787 748 658 646 576 531 508 522 454 431 390 395 400 425 492 476 414 316 288 324 366 322 278 63 314 363 342 400 561 769 906 930 1124 1438 1536 1454 1383 1552 1754 1750 1832 1776 1741 1686 1630 1514 1312 1180 1251 1188 1228 1126 1048 864 762 677 294 0 3 0 4 8 10 0 0 6 0 0 0 0 0 0 0 0 0 0 0
103 396 477 526 546 638 686 691 641 582 538 461 391 412 468 484 347 283 297 316 331 330 342 378 467 568 613 516 456 416 264 0 0 170 392 521 646 721 914 967 1144 1300 1264 1268 1253 1239 1278 1171 1375 1829 1804 1634 1553 1402 1282 1256 1221 1180 1197 1093 1050 779 712 563 290 1 0 1 8 16 6 0 3 1 0 0 0 0 0 0 0 0 0 0 0
137 276 354 398 429 472 486 495 501 462 456 432 379 359 332 324 286 226 230 238 218 217 239 322 388 437 531 556 500 426 392 366 314 0 234 392 516 537 607 722 824 933 1100 1177 1115 1142 1136 1093 1066 1160 1532 1482 1228 975 872 910 1110 1187 1182 1046 974 857 637 594 462 24 0 2 7 10 0 0 0 0 0 0 0 0 0 0 0 0 0 0 0
60 56 236 349 433 474 520 512 480 413 431 466 490 508 543 474 391 358 329 323 293 270 274 323 349 412 401 492 532 553 567 524 471 420 413 412 542 526 554 611 788 1014 1101 1175 1235 1276 1188 938 1080 1327 1461 1343 1060 910 815 830 942 1071 1077 979 901 846 896 677 259 122 2 1 0 2 1 0 0 0 0 0 0 0 0 0 0 0 0 0 0
79 83 60 62 193 0 258 347 389 393 349 379 406 454 454 458 406 346 313 305 304 285 92 313 353 364 365 382 508 663 718 664 576 557 627 676 647 749 656 638 734 836 958 1031 1116 1042 875 786 765 971 1085 990 854 788 784 956 962 1060 1011 937 933 792 559 290 79 29 0 0 0 0 0 0 0 0 0 0 0 0 0 0 0 0 0 0 0
80 56 75 141 165 114 14 0 9 234 304 278 291 342 346 320 240 236 257 307 340 340 290 297 344 324 354 390 395 455 566 643 632 612 641 635 591 681 752 745 706 743 866 952 906 1004 904 680 675 730 771 800 757 754 1143 1251 1230 1225 1146 1023 861 398 113 136 108 19 0 0 0 0 0 0 0 0 0 0 0 0 0 0 0 0 0 0 0
5 4 13 22 37 73 103 98 61 0 3 139 272 283 282 115 141 283 344 379 358 311 295 3 161 140 145 320 364 423 474 559 666 701 618 551 626 661 689 780 668 638 768 929 974 1025 856 563 535 552 650 685 758 1006 1152 1292 1330 1159 1155 1045 834 716 313 210 251 87 2 0 0 0 0 0 0 0 0 0 0 0 0 0 0 0 0 0 0
4 1 1 1 2 2 0 2 45 33 26 16 7 226 283 314 354 386 374 269 231 224 0 16 201 152 11 0 0 0 308 431 553 667 695 647 610 528 500 647 704 578 660 834 945 957 860 636 557 599 700 786 910 1039 1137 1150 1063 1003 915 727 580 530 429 262 156 39 1 0 0 0 0 0 0 0 0 0 0 0 0 0 0 0 0 0 0
3 2 0 0 0 0 0 2 3 8 15 12 24 88 218 300 381 401 257 189 28 63 0 0 0 36 55 57 51 140 79 317 478 567 629 669 566 494 546 606 522 459 547 779 899 922 793 639 586 781 793 769 904 852 768 706 654 574 447 353 276 274 236 123 98 92 0 0 1 0 0 0 0 0 0 0 0 0 0 0 0 0 0 0 0
4 3 2 1 0 0 0 3 8 5 8 5 6 28 56 80 126 187 214 142 37 0 0 0 0 0 0 43 0 26 31 284 420 472 486 409 383 459 543 530 446 404 553 813 986 932 825 770 973 884 627 685 417 404 431 453 436 376 304 252 231 211 149 46 54 62 0 1 0 0 0 0 0 0 2 0 0 0 0 0 0 0 0 0 0
2 7 2 2 2 4 1 1 2 4 6 4 8 17 7 28 65 81 99 152 0 0 126 97 105 24 12 22 40 91 129 220 288 394 430 360 320 405 478 478 419 449 616 854 929 857 839 833 687 543 339 198 216 368 351 237 305 275 255 210 192 182 161 36 113 71 0 0 0 2 6 10 6 1 3 0 0 0 0 0 0 0 0 0 0
8 7 6 6 8 12 3 0 0 1 6 11 12 10 10 10 8 12 56 73 66 37 81 106 63 0 0 0 46 4 34 34 123 217 354 363 123 351 500 449 416 416 578 773 748 656 525 531 283 364 376 478 533 480 430 395 293 236 216 176 205 127 158 47 94 24 0 0 0 2 2 2 8 8 1 0 0 0 0 0 0 0 0 0 0
2 1 3 13 15 8 1 1 0 0 0 5 12 9 2 2 2 10 44 80 82 65 12 100 183 52 0 0 85 0 1 11 13 62 279 267 255 159 293 173 191 474 571 522 290 250 154 89 141 433 574 518 401 421 389 316 253 234 263 272 266 175 218 148 110 11 0 0 0 0 0 0 2 0 0 0 0 0 0 0 0 0 0 0 0
7 3 6 2 3 2 2 2 2 1 1 1 6 14 15 10 6 8 11 19 13 17 19 12 104 188 169 175 129 6 0 0 7 62 138 86 81 134 131 64 66 45 66 160 249 48 88 88 207 313 172 352 417 434 413 357 311 276 239 189 178 151 46 80 4 0 0 1 1 0 1 0 0 0 0 0 0 0 0 0 0 0 0 0 0
0 6 8 3 5 4 2 1 2 1 3 0 0 0 6 10 7 4 2 2 2 9 7 23 16 3 11 70 118 19 0 0 0 0 0 10 24 20 12 12 27 29 19 14 32 41 52 240 368 436 421 307 253 274 330 395 352 266 204 165 138 46 25 54 0 0 0 0 0 0 0 0 0 0 0 0 0 0 0 0 0 0 0 0 0
2 1 7 6 9 9 9 1 0 0 1 2 3 2 0 0 0 0 0 0 0 0 11 17 33 26 23 49 49 16 6 9 0 3 0 3 7 16 8 7 14 10 8 14 28 40 19 125 298 408 394 317 326 317 294 257 192 149 97 110 118 42 42 20 0 0 0 0 0 0 0 0 0 1 0 0 0 0 0 0 0 0 0 0 0
3 3 1 2 13 5 6 1 0 2 0 1 3 2 2 0 0 0 0 0 0 0 0 3 12 32 38 18 18 12 64 122 86 62 23 4 1 0 0 0 6 0 0 0 0 3 10 63 158 256 295 235 237 272 264 225 144 38 1 10 32 52 14 0 0 0 0 0 0 0 0 0 0 2 0 0 0 0 0 0 0 0 0 0 0
5 8 4 7 8 6 1 0 0 1 0 3 12 5 0 0 0 0 0 0 0 0 0 0 0 4 8 17 10 39 33 88 131 94 50 13 26 12 6 1 0 0 11 69 102 122 122 197 232 234 143 85 92 122 173 180 146 80 55 26 9 16 0 0 0 0 0 0 0 0 0 0 1 3 0 0 0 0 0 0 0 0 0 0 0
3 5 6 8 12 3 2 1 0 0 1 1 1 7 11 2 2 3 2 1 1 0 0 0 0 0 2 9 8 3 23 17 8 24 68 23 14 20 14 15 37 102 117 106 16 91 122 72 111 152 144 58 69 66 62 6 0 0 1 1 1 0 0 0 0 0 0 0 1 2 3 2 2 0 0 0 0 0 0 0 1 2 2 1 0
Wind_Speed
45 43 42 40 38 37 37 39 39 39 35 32 30 31 32 33 33 34 36 34 36 38 37 36 36 34 31 28 27 28 28 27 25 24 24 24 24 26 26 25 24 24 26 29 29 29 28 27 26 26 26 25 25 25 26 26 26 26 26 26 27 27 29 nan nan nan nan nan nan nan nan nan nan nan nan nan nan nan nan nan nan nan nan nan nan
51 48 45 44 41 40 39 39 39 39 37 34 32 33 34 34 33 35 35 32 34 35 35 38 40 38 34 29 27 27 28 29 28 26 24 24 25 27 27 26 25 25 26 29 31 30 29 28 26 26 26 25 25 25 26 26 26 26 26 26 26 27 28 nan nan nan nan nan nan nan nan nan nan nan nan nan nan nan nan nan nan nan nan nan nan
42 50 53 48 43 42 42 42 42 40 38 39 37 35 36 36 36 37 35 33 34 35 36 38 40 39 38 34 29 29 29 29 29 26 24 25 26 27 28 26 25 26 27 29 31 31 30 29 27 26 25 24 24 25 26 26 26 27 26 25 26 27 28 nan nan nan nan nan nan nan nan nan nan nan nan nan nan nan nan nan nan nan nan nan nan
37 36 38 47 51 47 46 45 44 44 41 41 40 40 39 38 39 40 38 37 37 38 39 41 42 41 40 37 31 30 29 29 29 26 24 26 27 27 29 27 25 25 27 29 31 33 32 30 27 27 26 25 25 26 26 25 26 26 25 25 25 27 28 nan nan nan nan nan nan nan nan nan nan nan nan nan nan nan nan nan nan nan nan nan nan
46 41 39 36 38 46 47 47 45 43 42 42 40 42 42 41 41 41 43 41 41 41 41 43 43 41 38 34 31 31 30 29 30 27 24 26 28 28 28 27 25 25 27 29 31 33 33 31 30 28 27 26 26 26 27 26 25 26 26 25 26 26 nan nan nan nan nan nan nan nan nan nan nan nan nan nan nan nan nan nan nan nan nan nan nan
57 55 49 44 41 41 43 45 44 42 42 43 42 42 43 42 41 41 41 42 42 41 39 41 42 38 34 32 32 32 32 31 30 29 27 27 28 28 28 28 25 24 25 28 30 32 33 32 30 30 29 28 27 27 28 27 26 26 26 nan nan nan nan nan nan nan nan nan nan nan nan nan nan nan nan nan nan nan nan nan nan nan nan nan nan
64 63 58 53 49 46 44 44 44 42 41 41 43 44 44 43 41 39 38 38 39 38 37 39 40 36 33 34 35 34 32 31 30 31 30 29 28 28 28 28 27 25 24 27 30 31 33 32 31 31 31 29 28 29 29 28 27 nan nan nan nan nan nan nan nan nan nan nan nan nan nan nan nan nan nan nan nan nan nan nan nan nan nan nan nan
60 63 59 50 49 50 51 46 42 44 44 41 41 42 42 42 40 39 39 36 35 34 35 36 37 35 34 36 36 36 34 32 31 31 32 31 29 28 28 29 28 25 24 26 29 30 33 33 32 32 32 30 29 28 30 29 28 26 26 nan nan nan nan nan nan nan nan nan nan nan nan nan nan nan nan nan nan nan nan nan nan nan nan nan nan
60 61 64 60 56 55 53 48 46 49 49 46 44 42 41 41 39 39 40 37 35 33 33 35 35 34 34 36 37 37 34 31 31 31 32 32 31 29 28 28 29 27 25 26 28 29 31 33 33 32 33 32 32 31 31 31 31 28 26 nan nan nan nan nan nan nan nan nan nan nan nan nan nan nan nan nan nan nan nan nan nan nan nan nan nan
67 64 63 61 56 50 46 43 43 51 55 51 48 44 42 42 40 40 39 37 35 34 34 35 34 32 32 34 37 37 33 31 28 26 29 32 33 32 30 29 29 28 27 27 27 28 30 32 32 35 36 36 35 34 34 33 33 32 nan nan nan nan nan nan nan nan nan nan nan nan nan nan nan nan nan nan nan nan nan nan nan nan nan nan nan
64 61 59 57 51 49 51 42 36 45 53 54 53 48 43 43 42 41 40 38 36 37 38 37 34 31 30 33 35 35 33 30 25 27 28 30 33 33 31 29 30 29 27 27 28 28 28 30 31 33 34 35 35 36 35 34 33 33 nan nan nan nan nan nan nan nan nan nan nan nan nan nan nan nan nan nan nan nan nan nan nan nan nan nan nan
61 57 55 54 48 47 49 43 38 44 52 56 55 51 47 45 43 42 41 38 38 39 40 39 34 32 33 34 34 34 32 28 26 28 29 30 32 33 32 31 31 29 27 27 28 30 29 29 30 31 33 34 34 33 34 35 35 34 nan nan nan nan nan nan nan nan nan nan nan nan nan nan nan nan nan nan nan nan nan nan nan nan nan nan nan
66 63 60 59 53 46 43 43 40 40 45 52 56 53 49 46 44 44 42 41 42 42 41 38 35 35 35 34 33 33 32 29 30 30 29 29 29 32 33 32 33 31 28 28 29 30 31 30 30 30 32 37 36 34 34 34 33 34 34 nan nan nan nan nan nan nan nan nan nan nan nan nan nan nan nan nan nan nan nan nan nan nan nan nan nan
70 67 nan 66 65 57 50 48 44 39 40 49 54 54 51 47 45 46 46 46 45 45 43 40 39 38 37 35 33 32 31 31 33 31 29 28 29 31 32 34 34 33 30 29 30 31 32 31 30 30 32 35 35 36 35 36 36 33 30 29 nan nan nan nan nan nan nan nan nan nan nan nan nan nan nan nan nan nan nan nan nan nan nan nan nan
72 71 nan 70 72 68 59 54 52 48 45 48 54 56 54 51 48 48 48 47 47 47 46 44 42 40 38 37 35 30 28 29 35 32 29 29 30 32 32 35 35 35 32 30 31 32 33 33 31 31 33 36 36 38 37 38 38 35 33 30 nan nan nan nan nan nan nan nan nan nan nan nan nan nan nan nan nan nan nan nan nan nan nan nan nan
nan nan 73 72 73 71 62 53 52 54 53 52 54 56 58 59 59 57 52 49 49 49 47 45 42 41 40 39 37 31 26 26 35 34 31 30 33 35 34 34 35 36 34 31 31 33 35 34 33 31 33 35 38 43 41 41 39 37 34 31 30 29 28 nan nan nan nan nan nan nan nan nan nan nan nan nan nan nan nan nan nan nan nan nan nan
74 nan nan nan nan 72 68 59 55 56 58 57 56 55 56 56 58 60 59 57 52 46 43 43 42 42 41 40 39 36 29 27 33 35 34 36 40 36 35 34 35 35 34 33 33 34 36 35 33 32 33 34 39 43 45 46 40 38 36 33 31 31 29 nan nan nan nan nan 35 36 38 40 nan nan nan nan nan nan nan nan nan nan nan nan nan
72 72 71 nan nan nan nan 69 63 61 63 61 57 56 58 58 55 57 56 56 55 52 49 44 43 42 40 40 43 42 36 30 34 37 37 40 40 38 37 36 35 35 34 35 35 34 35 37 35 33 34 34 41 43 47 47 41 38 37 36 33 31 30 31 nan nan nan nan 37 39 40 43 44 nan nan nan nan nan nan nan nan nan nan nan nan
69 69 67 68 nan nan nan 73 69 65 65 65 64 60 59 58 56 56 56 57 57 56 56 54 50 46 44 41 41 43 42 37 40 41 41 41 39 39 40 39 36 34 34 34 35 35 35 35 35 35 35 38 44 44 47 46 42 39 38 37 34 32 35 37 nan nan 36 38 38 41 38 39 41 nan nan nan nan nan nan nan nan nan nan nan nan
57 61 63 66 70 72 74 74 71 66 63 64 66 65 65 65 63 61 nan nan 59 59 58 56 53 53 52 47 46 47 45 44 47 43 44 42 39 40 41 41 36 33 34 35 36 35 36 36 32 34 39 42 43 45 45 46 44 40 39 36 35 34 38 40 37 nan nan 42 42 42 43 41 nan nan nan nan nan nan nan nan nan nan nan nan nan
50 51 55 61 66 69 72 73 69 65 62 61 63 65 67 68 68 67 65 64 64 62 59 61 60 56 53 55 52 49 47 43 48 48 47 45 40 40 41 39 35 34 35 36 36 35 36 35 34 35 40 42 43 44 45 44 45 42 39 38 36 40 44 40 39 nan nan nan nan 44 46 43 nan nan nan nan nan nan nan nan nan nan nan nan nan
47 46 47 52 57 59 62 66 68 65 65 65 65 63 64 67 68 65 65 65 64 62 62 64 67 65 60 59 55 51 49 43 50 49 50 48 45 40 41 37 35 37 37 36 37 36 35 37 36 38 41 42 42 44 44 44 45 41 38 39 46 48 44 40 41 41 41 44 46 46 46 45 nan nan nan nan nan nan nan nan nan nan nan nan nan
47 44 43 46 51 52 53 56 60 63 61 59 57 57 58 62 65 66 65 65 64 62 59 60 67 67 64 61 58 54 52 51 49 51 48 49 48 45 38 37 37 40 39 36 34 35 40 40 39 42 41 42 42 43 43 44 44 38 41 44 45 44 42 38 40 42 nan nan nan 46 45 44 nan nan nan nan nan nan nan nan nan nan nan nan nan
48 44 41 44 48 49 49 49 51 55 56 57 60 60 60 61 63 66 66 65 64 63 62 65 68 65 63 65 63 56 53 55 55 50 49 47 50 46 41 37 44 42 39 37 37 39 41 41 42 44 41 40 41 42 43 45 42 39 43 44 43 42 39 40 40 43 45 nan 46 45 43 40 nan nan nan nan nan nan nan nan nan nan nan nan nan
43 41 40 41 45 48 50 49 50 53 56 57 57 57 58 60 61 64 66 65 64 64 64 64 65 65 65 64 62 57 50 50 53 53 50 50 48 47 43 40 43 43 41 38 41 39 39 44 47 46 42 40 40 41 42 43 43 45 46 45 44 39 41 42 43 44 45 nan 46 42 38 nan nan nan nan nan nan nan nan nan nan nan nan nan nan
43 42 41 41 44 51 51 46 46 49 51 53 55 55 56 57 57 60 64 64 64 65 65 64 64 66 65 63 62 58 54 51 46 52 57 54 51 47 45 42 43 43 40 39 40 42 45 45 46 45 43 39 40 42 41 41 42 46 47 46 41 41 43 45 45 45 44 nan 42 36 nan nan nan nan nan nan nan nan nan nan nan nan nan nan nan
40 39 37 36 39 45 47 45 44 46 48 51 52 53 54 55 55 57 62 65 65 64 63 62 62 60 60 61 60 59 59 54 46 46 53 59 57 51 48 48 44 43 42 48 47 44 44 46 45 44 42 40 40 41 43 45 44 42 43 42 41 42 45 47 47 nan nan nan nan nan nan nan nan nan nan nan nan nan nan nan nan nan nan nan nan
37 36 33 34 37 42 45 42 41 43 45 48 49 50 52 56 55 53 57 60 63 63 62 61 59 57 56 59 60 60 60 60 54 48 47 53 55 54 52 53 52 49 49 49 46 49 52 52 51 51 51 50 47 48 46 47 44 41 41 42 42 44 47 49 48 46 nan nan nan nan nan nan nan nan nan nan nan nan nan nan nan nan nan nan nan
37 34 32 33 36 41 42 41 40 41 43 45 45 47 49 53 53 52 53 56 57 58 60 60 59 58 56 56 57 58 60 58 54 51 47 46 48 52 55 55 55 52 51 54 57 59 59 55 52 50 46 45 44 43 44 47 45 42 41 42 45 48 49 48 47 47 nan nan nan nan nan nan nan nan nan nan nan nan nan nan nan nan nan nan nan
36 35 35 35 37 39 40 40 40 41 43 44 45 45 44 43 48 50 49 48 46 47 53 55 56 57 55 54 56 57 58 54 50 50 46 46 45 47 51 54 56 58 60 61 59 59 57 55 50 48 45 41 40 41 43 45 45 42 40 43 47 49 49 46 44 nan nan nan nan nan nan nan nan nan nan nan nan nan nan nan nan nan nan nan nan
40 39 39 38 39 40 40 40 40 41 42 43 44 45 45 44 40 38 39 40 45 45 43 44 47 48 50 51 51 47 49 51 51 47 46 48 47 45 47 53 59 62 67 68 64 59 57 54 49 47 43 39 38 40 43 44 43 42 42 45 47 50 50 47 nan nan nan nan nan nan nan nan nan nan nan nan nan nan nan nan nan nan nan nan nan
47 44 43 41 40 39 38 39 40 40 41 41 41 42 42 40 40 40 36 34 34 37 40 41 41 43 42 42 47 50 47 47 49 46 47 49 50 49 53 60 63 65 63 66 62 58 55 53 51 46 42 39 37 40 42 41 41 42 45 47 46 48 49 44 nan nan nan nan nan nan nan nan nan nan nan nan nan nan nan nan nan nan nan nan nan
46 46 44 41 39 37 36 37 39 39 39 38 38 38 39 39 37 37 41 40 38 39 40 39 37 38 41 39 37 43 46 nan 45 43 44 48 53 56 60 63 63 62 65 65 63 57 53 52 48 43 40 36 38 40 40 41 41 42 45 47 47 46 46 48 51 nan nan nan nan nan nan nan nan nan nan nan nan nan nan nan nan nan nan nan nan
38 41 41 40 39 38 37 37 38 38 38 37 36 35 36 37 36 35 34 37 41 40 39 38 36 35 37 36 33 33 39 nan nan 41 43 45 50 57 63 60 57 59 64 62 58 50 49 50 50 46 39 36 38 41 40 38 39 42 45 45 46 49 51 51 51 nan nan nan nan nan nan nan nan nan nan nan nan nan nan nan nan nan nan nan nan
31 34 38 38 38 38 37 37 37 36 36 35 34 34 33 34 34 33 30 31 33 33 33 34 34 37 38 39 35 31 32 35 37 nan 43 43 45 54 65 66 63 63 61 59 52 48 48 49 49 47 42 37 38 41 38 37 41 44 44 47 48 49 49 49 49 nan nan nan nan nan nan nan nan nan nan nan nan nan nan nan nan nan nan nan nan
nan nan 31 34 35 36 35 36 36 37 37 35 34 33 33 31 31 29 29 28 29 30 31 31 36 37 32 33 34 34 34 34 36 40 43 47 54 62 58 55 56 57 56 54 50 48 47 46 47 47 46 42 42 39 37 38 41 43 45 47 49 48 48 48 47 49 nan nan nan nan nan nan nan nan nan nan nan nan nan nan nan nan nan nan nan
nan nan nan nan 32 nan 33 34 35 36 35 35 35 34 33 31 29 27 27 28 29 30 nan 32 37 39 40 38 34 34 35 39 38 36 38 49 61 58 54 53 53 56 55 51 48 45 44 44 46 47 46 44 42 40 39 41 46 47 50 52 51 47 42 41 nan nan nan nan nan nan nan nan nan nan nan nan nan nan nan nan nan nan nan nan nan
nan nan nan 30 31 32 nan nan nan 34 34 35 35 36 35 33 31 30 29 29 31 31 29 31 34 34 34 35 42 42 44 50 52 46 42 44 49 48 51 51 54 56 53 49 45 42 40 41 44 45 45 46 44 43 43 46 47 47 50 50 48 43 45 45 43 nan nan nan nan nan nan nan nan nan nan nan nan nan nan nan nan nan nan nan nan
nan nan nan nan nan nan 31 nan nan nan nan 32 34 36 36 35 34 34 33 34 33 33 32 nan 32 34 34 40 44 47 52 50 49 47 47 44 41 43 47 49 53 55 53 46 42 40 40 41 42 45 45 44 44 46 47 47 47 47 48 48 47 47 47 44 44 nan nan nan nan nan nan nan nan nan nan nan nan nan nan nan nan nan nan nan nan
nan nan nan nan nan nan nan nan nan nan nan nan nan 31 33 35 35 34 33 33 32 33 nan nan 29 31 nan nan nan nan 40 42 45 48 48 47 44 44 47 50 52 53 49 45 42 39 40 42 44 44 44 44 46 47 48 48 47 47 47 46 46 46 45 44 43 nan nan nan nan nan nan nan nan nan nan nan nan nan nan nan nan nan nan nan nan
nan nan nan nan nan nan nan nan nan nan nan nan nan nan 31 32 32 32 31 30 nan nan nan nan nan nan nan nan nan 34 nan 36 38 39 39 41 42 42 42 45 49 49 46 42 40 39 40 43 43 43 45 46 47 48 48 47 47 47 46 47 48 48 47 44 nan nan nan nan nan nan nan nan nan nan nan nan nan nan nan nan nan nan nan nan nan
nan nan nan nan nan nan nan nan nan nan nan nan nan nan nan nan 32 32 31 31 nan nan nan nan nan nan nan nan nan nan nan 38 37 34 33 34 36 37 39 43 46 45 43 41 41 41 42 43 44 45 47 49 50 49 50 48 47 46 48 49 50 50 47 nan nan nan nan nan nan nan nan nan nan nan nan nan nan nan nan nan nan nan nan nan nan
nan nan nan nan nan nan nan nan nan nan nan nan nan nan nan nan nan nan nan 31 nan nan 29 nan 31 nan nan nan nan nan 38 40 40 36 33 32 33 37 43 49 49 45 43 43 46 46 45 45 47 48 49 50 50 49 48 47 47 48 50 51 51 49 47 nan 44 nan nan nan nan nan nan nan nan nan nan nan nan nan nan nan nan nan nan nan nan
nan nan nan nan nan nan nan nan nan nan nan nan nan nan nan nan nan nan nan nan nan nan nan 29 nan nan nan nan nan nan nan nan 37 36 33 33 34 37 42 47 48 48 46 45 45 48 50 51 52 52 53 52 51 49 47 48 50 51 51 51 50 48 46 nan nan nan nan nan nan nan nan nan nan nan nan nan nan nan nan nan nan nan nan nan nan
nan nan nan nan nan nan nan nan nan nan nan nan nan nan nan nan nan nan nan nan nan nan nan nan 31 nan nan nan nan nan nan nan nan nan 35 37 42 45 46 45 44 46 49 49 48 47 49 nan 51 52 52 52 51 50 49 50 51 51 52 52 50 48 46 46 47 nan nan nan nan nan nan nan nan nan nan nan nan nan nan nan nan nan nan nan nan
nan nan nan nan nan nan nan nan nan nan nan nan nan nan nan nan nan nan nan nan nan nan nan nan 32 32 30 30 32 nan nan nan nan nan 34 nan nan 41 45 nan nan nan nan 53 53 nan nan nan 52 52 51 50 50 50 50 51 51 52 52 49 48 48 nan nan nan nan nan nan nan nan nan nan nan nan nan nan nan nan nan nan nan nan nan nan nan
nan nan nan nan nan nan nan nan nan nan nan nan nan nan nan nan nan nan nan nan nan nan nan nan nan nan nan nan 33 nan nan nan nan nan nan nan nan nan nan nan nan nan nan nan nan nan nan 52 52 53 52 51 51 52 51 51 50 50 50 50 50 nan nan nan nan nan nan nan nan nan nan nan nan nan nan nan nan nan nan nan nan nan nan nan nan
nan nan nan nan nan nan nan nan nan nan nan nan nan nan nan nan nan nan nan nan nan nan nan nan nan nan nan nan nan nan nan nan nan nan nan nan nan nan nan nan nan nan nan nan nan nan nan 48 48 49 50 49 50 50 49 49 50 50 nan 51 52 nan nan nan nan nan nan nan nan nan nan nan nan nan nan nan nan nan nan nan nan nan nan nan nan
nan nan nan nan nan nan nan nan nan nan nan nan nan nan nan nan nan nan nan nan nan nan nan nan nan nan nan nan nan nan nan 28 nan nan nan nan nan nan nan nan nan nan nan nan nan nan nan nan 42 43 44 45 46 48 49 50 51 nan nan nan nan nan nan nan nan nan nan nan nan nan nan nan nan nan nan nan nan nan nan nan nan nan nan nan nan
nan nan nan nan nan nan nan nan nan nan nan nan nan nan nan nan nan nan nan nan nan nan nan nan nan nan nan nan nan nan nan nan 33 nan nan nan nan nan nan nan nan nan nan nan 39 39 40 40 41 42 43 nan nan 48 50 51 52 nan nan nan nan nan nan nan nan nan nan nan nan nan nan nan nan nan nan nan nan nan nan nan nan nan nan nan nan
nan nan nan nan nan nan nan nan nan nan nan nan nan nan nan nan nan nan nan nan nan nan nan nan nan nan nan nan nan nan nan nan nan nan nan nan nan nan nan nan nan 42 43 44 nan nan 46 nan 46 47 48 nan nan nan nan nan nan nan nan nan nan nan nan nan nan nan nan nan nan nan nan nan nan nan nan nan nan nan nan nan nan nan nan nan nan
Wind_Direction
218 222 231 238 243 245 246 249 249 245 245 246 247 250 248 245 242 239 236 237 243 248 249 250 253 256 261 273 285 287 289 289 287 287 286 289 294 299 302 313 324 327 327 330 329 329 333 335 332 331 325 325 326 326 329 333 333 335 336 337 339 335 333 nan nan nan nan nan nan nan nan nan nan nan nan nan nan nan nan nan nan nan nan nan nan
213 210 217 225 235 239 242 244 246 244 242 243 246 248 247 244 239 233 231 236 244 250 250 248 250 253 256 269 281 283 285 288 288 289 289 288 292 290 298 309 319 323 324 328 330 330 332 335 333 328 324 327 324 326 329 330 331 333 335 337 338 337 337 nan nan nan nan nan nan nan nan nan nan nan nan nan nan nan nan nan nan nan nan nan nan
234 218 210 214 219 228 236 239 242 243 242 239 241 243 244 243 236 230 229 234 241 248 251 252 253 253 254 263 275 277 279 283 285 291 292 289 290 291 295 304 315 321 325 328 329 329 331 335 334 325 319 323 323 324 324 329 329 332 337 334 336 336 337 nan nan nan nan nan nan nan nan nan nan nan nan nan nan nan nan nan nan nan nan nan nan
235 237 228 213 210 219 225 230 236 237 237 236 237 237 239 239 235 230 230 233 240 246 251 253 252 253 254 260 268 272 273 277 282 288 294 288 285 289 293 300 309 318 323 324 325 328 334 333 331 326 322 323 322 320 321 324 328 331 334 334 335 337 336 nan nan nan nan nan nan nan nan nan nan nan nan nan nan nan nan nan nan nan nan nan nan
243 245 241 238 231 217 218 224 227 231 233 232 233 235 236 236 234 231 232 235 240 245 248 250 252 254 255 258 265 268 270 274 276 280 285 283 281 282 289 295 304 313 318 320 322 326 331 334 330 324 321 324 320 320 319 324 327 328 333 333 335 335 nan nan nan nan nan nan nan nan nan nan nan nan nan nan nan nan nan nan nan nan nan nan nan
238 231 229 232 231 234 223 217 220 224 228 229 231 232 234 235 235 234 235 238 241 244 247 249 251 254 255 257 260 263 263 266 272 276 278 277 275 278 284 291 299 307 312 315 319 322 327 330 327 324 323 325 323 319 316 323 322 326 331 nan nan nan nan nan nan nan nan nan nan nan nan nan nan nan nan nan nan nan nan nan nan nan nan nan nan
237 234 231 225 224 228 233 224 217 222 226 231 231 231 232 233 234 236 238 240 241 241 243 247 248 251 252 254 256 258 260 262 266 269 272 275 276 277 280 287 293 299 307 311 313 317 322 325 325 325 327 326 322 319 317 316 319 nan nan nan nan nan nan nan nan nan nan nan nan nan nan nan nan nan nan nan nan nan nan nan nan nan nan nan nan
233 234 237 238 243 240 231 229 228 221 226 233 235 234 231 231 233 235 238 240 239 239 240 243 245 247 249 252 254 254 255 257 262 267 271 275 276 274 277 282 289 295 299 304 307 312 317 321 323 325 327 326 322 316 314 316 314 319 322 nan nan nan nan nan nan nan nan nan nan nan nan nan nan nan nan nan nan nan nan nan nan nan nan nan nan
235 235 238 241 248 248 234 224 223 220 223 228 233 234 231 229 232 234 235 236 236 236 236 237 240 243 246 251 254 255 256 258 260 265 270 276 276 273 272 277 284 290 293 297 301 307 311 316 320 321 324 326 326 319 318 315 312 317 317 nan nan nan nan nan nan nan nan nan nan nan nan nan nan nan nan nan nan nan nan nan nan nan nan nan nan
237 238 242 242 244 244 233 223 218 217 219 224 227 231 231 229 230 231 232 235 238 239 238 236 236 240 244 250 254 256 257 257 265 280 278 274 275 268 264 269 279 285 289 292 295 302 308 310 314 325 326 327 324 322 321 321 321 318 nan nan nan nan nan nan nan nan nan nan nan nan nan nan nan nan nan nan nan nan nan nan nan nan nan nan nan
235 236 234 233 239 240 230 224 219 216 220 222 223 228 231 230 230 230 230 233 236 240 242 240 240 239 241 247 252 256 260 261 276 278 281 285 276 268 266 267 273 279 284 290 293 296 298 303 306 315 320 321 321 324 321 322 322 322 nan nan nan nan nan nan nan nan nan nan nan nan nan nan nan nan nan nan nan nan nan nan nan nan nan nan nan
233 233 231 229 230 229 228 229 231 230 227 223 221 226 229 230 230 229 230 232 234 239 243 245 247 247 242 244 249 255 260 267 275 275 278 283 281 271 264 264 269 276 281 286 287 289 294 296 299 302 308 313 312 314 317 320 321 322 nan nan nan nan nan nan nan nan nan nan nan nan nan nan nan nan nan nan nan nan nan nan nan nan nan nan nan
233 230 229 229 224 218 220 225 231 238 232 220 220 226 228 229 229 228 230 234 235 239 243 245 248 251 249 247 247 253 256 266 269 272 276 282 286 278 265 267 270 275 279 283 284 286 288 292 295 299 302 313 310 309 309 309 315 321 321 nan nan nan nan nan nan nan nan nan nan nan nan nan nan nan nan nan nan nan nan nan nan nan nan nan nan
238 233 nan 229 228 228 233 237 238 240 233 221 219 225 228 229 229 228 230 234 238 241 243 244 247 251 250 246 243 246 253 259 266 268 273 282 285 279 268 269 270 274 279 282 281 284 288 291 294 297 295 299 302 305 305 304 304 305 307 308 nan nan nan nan nan nan nan nan nan nan nan nan nan nan nan nan nan nan nan nan nan nan nan nan nan
240 240 nan 232 232 235 239 241 240 240 236 228 222 221 225 228 228 227 229 234 239 241 243 244 247 249 248 243 240 243 248 260 263 266 269 277 282 278 268 266 268 273 277 281 283 283 284 287 292 297 297 298 300 305 303 301 301 304 306 307 nan nan nan nan nan nan nan nan nan nan nan nan nan nan nan nan nan nan nan nan nan nan nan nan nan
nan nan 239 238 237 238 238 236 234 233 234 233 229 226 227 227 224 223 227 233 237 239 240 241 244 247 247 244 241 243 247 262 264 264 267 269 275 266 266 268 269 272 275 278 279 279 281 285 289 293 294 297 301 308 306 299 300 303 306 303 300 299 302 nan nan nan nan nan nan nan nan nan nan nan nan nan nan nan nan nan nan nan nan nan nan
236 nan nan nan nan 240 240 237 232 230 228 227 227 227 229 230 232 232 229 224 225 232 237 239 239 242 246 248 247 245 248 261 267 265 264 267 263 259 264 266 267 271 275 275 274 276 279 283 287 290 293 295 300 306 306 302 299 303 303 302 301 300 305 nan nan nan nan nan 316 316 317 323 nan nan nan nan nan nan nan nan nan nan nan nan nan
237 237 236 nan nan nan nan 239 236 232 230 227 226 225 226 228 230 235 238 238 231 223 224 228 236 241 245 250 250 246 247 257 266 264 264 264 265 261 260 262 264 269 271 271 270 273 280 291 290 292 295 295 299 305 306 303 299 301 300 300 302 306 305 297 nan nan nan nan 296 304 313 319 322 nan nan nan nan nan nan nan nan nan nan nan nan
236 238 237 236 nan nan nan 239 240 236 231 227 227 226 226 228 229 231 235 239 242 241 236 227 228 235 240 246 250 247 243 249 261 261 262 265 263 257 259 259 262 266 269 270 269 270 273 281 296 296 297 296 302 304 306 302 298 298 301 302 309 312 306 300 nan nan 298 295 295 297 298 306 310 nan nan nan nan nan nan nan nan nan nan nan nan
234 236 238 238 238 239 240 241 241 239 232 228 228 228 228 229 230 232 nan nan 239 242 246 247 239 230 229 234 240 243 241 243 253 262 261 263 266 258 255 257 260 265 267 267 266 266 269 271 282 294 298 298 301 303 305 305 298 296 297 304 306 311 298 298 301 nan nan 302 303 302 303 305 nan nan nan nan nan nan nan nan nan nan nan nan nan
229 232 235 237 237 239 239 240 238 236 233 230 228 229 231 231 232 232 233 234 234 236 241 245 247 243 237 234 233 239 242 246 253 265 264 264 264 263 255 257 259 262 261 262 264 266 267 271 272 284 293 296 298 301 303 305 300 296 301 304 307 299 296 298 302 nan nan nan nan 301 302 303 nan nan nan nan nan nan nan nan nan nan nan nan nan
228 233 235 236 235 234 233 233 234 233 232 231 229 227 228 232 234 233 233 233 235 235 235 238 241 244 244 240 233 231 237 246 249 260 269 272 270 271 258 257 261 260 258 257 261 262 266 269 271 280 292 295 296 297 301 302 302 295 303 306 295 299 304 302 303 304 305 304 303 303 302 303 nan nan nan nan nan nan nan nan nan nan nan nan nan
228 234 238 236 233 232 230 232 234 234 233 233 233 231 229 230 234 236 235 234 234 235 236 237 239 239 241 242 241 235 233 235 248 251 262 270 274 275 275 263 264 260 258 259 264 264 261 266 270 284 292 295 295 298 299 302 298 299 305 301 302 305 305 302 305 305 nan nan nan 306 304 304 nan nan nan nan nan nan nan nan nan nan nan nan nan
229 236 240 236 229 228 229 231 232 233 232 229 228 228 227 228 231 234 234 234 233 233 235 238 241 242 243 245 245 241 235 234 239 248 252 261 264 272 276 273 266 260 259 256 257 259 261 265 271 287 290 291 294 295 296 297 296 305 301 303 302 304 301 302 304 306 307 nan 309 307 305 304 nan nan nan nan nan nan nan nan nan nan nan nan nan
236 240 242 237 229 224 224 226 229 230 231 233 230 227 226 229 231 232 235 234 234 234 234 236 240 242 243 244 245 248 247 240 235 238 249 257 258 261 267 273 266 267 260 253 256 260 266 272 279 289 293 293 294 294 293 299 306 301 297 298 299 298 301 302 305 305 309 nan 312 308 304 nan nan nan nan nan nan nan nan nan nan nan nan nan nan
232 235 235 234 229 225 225 229 230 229 230 232 232 231 229 230 233 233 235 235 237 238 237 237 238 242 245 245 246 248 251 250 244 239 237 245 251 257 258 263 266 265 267 260 263 267 269 273 281 287 291 291 282 275 276 282 291 295 298 297 294 297 299 301 303 308 313 nan 307 307 nan nan nan nan nan nan nan nan nan nan nan nan nan nan nan
228 229 230 231 229 226 226 231 234 232 232 231 232 233 233 232 234 234 234 235 237 238 239 239 240 242 246 247 249 250 252 253 254 251 246 243 244 247 247 247 254 255 254 251 250 256 264 268 270 276 276 285 281 277 273 277 282 281 282 288 291 294 297 300 304 nan nan nan nan nan nan nan nan nan nan nan nan nan nan nan nan nan nan nan nan
229 229 229 233 233 231 231 233 235 235 236 236 234 233 234 236 237 238 237 236 238 239 240 241 242 244 244 246 249 252 252 252 254 256 254 251 249 250 250 249 249 252 253 252 249 250 252 253 256 255 253 253 256 257 265 272 277 280 283 287 289 289 293 299 301 304 nan nan nan nan nan nan nan nan nan nan nan nan nan nan nan nan nan nan nan
228 230 233 234 234 234 235 236 237 238 240 240 238 237 236 237 240 238 238 239 240 240 239 240 242 244 245 245 247 250 253 255 256 260 262 265 263 258 254 251 251 251 255 256 247 246 250 252 254 258 261 263 261 263 266 270 275 279 284 286 287 287 291 297 302 304 nan nan nan nan nan nan nan nan nan nan nan nan nan nan nan nan nan nan nan
230 230 233 236 235 236 237 239 239 240 241 242 240 237 237 240 242 244 241 246 250 245 243 240 241 244 245 245 247 251 256 259 264 268 267 266 268 270 264 262 260 257 256 260 254 250 253 254 254 257 259 260 262 265 268 270 275 280 284 287 288 289 293 297 299 nan nan nan nan nan nan nan nan nan nan nan nan nan nan nan nan nan nan nan nan
234 233 234 234 231 233 235 235 237 239 241 243 244 242 238 241 249 252 251 247 251 254 249 242 238 243 246 245 247 251 254 259 265 271 272 269 273 276 272 266 265 262 260 254 249 250 251 254 254 252 255 258 261 264 267 271 275 281 284 286 287 290 295 299 nan nan nan nan nan nan nan nan nan nan nan nan nan nan nan nan nan nan nan nan nan
234 236 232 227 224 229 231 234 235 237 239 243 246 247 246 244 247 260 265 262 260 258 255 251 244 238 242 250 251 250 251 255 259 265 272 273 272 275 271 267 266 265 264 263 254 251 252 253 250 250 254 258 261 262 266 271 275 280 282 282 286 290 296 304 nan nan nan nan nan nan nan nan nan nan nan nan nan nan nan nan nan nan nan nan nan
231 232 233 228 226 225 227 230 235 239 241 243 247 251 252 254 253 248 258 269 269 267 263 261 257 246 239 241 251 253 256 nan 265 266 270 273 273 271 270 271 271 268 260 249 245 248 249 252 255 256 256 255 257 262 266 269 274 279 282 285 289 293 295 287 286 nan nan nan nan nan nan nan nan nan nan nan nan nan nan nan nan nan nan nan nan
227 229 227 225 223 225 228 231 236 241 244 246 249 251 254 257 254 253 250 251 257 260 265 270 268 256 245 244 248 249 250 nan nan 263 268 270 271 270 267 264 268 265 255 245 246 249 249 250 252 255 257 257 257 260 263 267 272 276 278 282 285 284 287 291 294 nan nan nan nan nan nan nan nan nan nan nan nan nan nan nan nan nan nan nan nan
226 223 218 219 221 222 230 235 239 244 245 245 247 251 253 254 256 253 251 252 254 255 252 254 263 267 256 249 250 256 259 260 263 nan 268 269 270 266 258 250 244 234 233 235 244 248 247 247 248 251 255 256 255 258 262 266 268 273 278 280 281 284 288 292 294 nan nan nan nan nan nan nan nan nan nan nan nan nan nan nan nan nan nan nan nan
nan nan 224 221 222 223 229 234 240 242 241 243 245 248 249 250 252 254 252 248 247 247 243 243 243 252 262 260 264 265 261 262 271 275 271 269 268 266 257 251 245 240 239 239 238 239 245 248 248 249 252 253 253 256 261 265 269 273 274 278 282 285 288 290 295 299 nan nan nan nan nan nan nan nan nan nan nan nan nan nan nan nan nan nan nan
nan nan nan nan 226 nan 230 235 242 242 245 246 245 243 246 248 251 250 248 243 240 238 nan 235 234 235 242 245 253 258 260 263 269 272 271 268 271 267 259 256 248 240 238 239 238 240 246 246 245 246 249 250 251 254 256 259 263 267 269 273 276 281 291 300 nan nan nan nan nan nan nan nan nan nan nan nan nan nan nan nan nan nan nan nan nan
nan nan nan 226 228 230 nan nan nan 240 244 243 241 239 243 245 244 242 243 241 239 238 237 238 241 242 243 243 248 250 251 251 249 243 246 265 271 263 258 254 245 239 238 236 236 240 245 246 245 246 247 247 248 251 252 255 260 267 271 275 280 285 289 290 295 nan nan nan nan nan nan nan nan nan nan nan nan nan nan nan nan nan nan nan nan
nan nan nan nan nan nan 233 nan nan nan nan 239 239 237 238 237 236 236 236 237 236 238 240 nan 242 242 243 245 245 248 252 250 250 253 262 270 268 262 258 252 241 235 236 237 236 238 242 245 245 245 245 247 249 250 252 256 261 265 270 274 278 281 287 290 296 nan nan nan nan nan nan nan nan nan nan nan nan nan nan nan nan nan nan nan nan
nan nan nan nan nan nan nan nan nan nan nan nan nan 236 233 231 231 232 235 235 235 237 nan nan 245 243 nan nan nan nan 251 252 254 258 265 270 267 259 254 248 238 236 238 236 234 237 241 243 244 245 246 247 249 251 253 257 261 267 271 274 278 282 286 287 292 nan nan nan nan nan nan nan nan nan nan nan nan nan nan nan nan nan nan nan nan
nan nan nan nan nan nan nan nan nan nan nan nan nan nan 234 232 234 234 232 232 nan nan nan nan nan nan nan nan nan 252 nan 253 255 258 265 271 269 264 256 245 238 236 236 235 234 237 240 241 242 243 245 247 248 251 254 258 262 267 272 274 276 278 281 287 nan nan nan nan nan nan nan nan nan nan nan nan nan nan nan nan nan nan nan nan nan
nan nan nan nan nan nan nan nan nan nan nan nan nan nan nan nan 231 231 230 230 nan nan nan nan nan nan nan nan nan nan nan 242 247 255 262 266 267 263 251 240 235 235 237 235 234 236 236 237 239 240 243 245 247 249 252 257 262 268 271 273 276 278 282 nan nan nan nan nan nan nan nan nan nan nan nan nan nan nan nan nan nan nan nan nan nan
nan nan nan nan nan nan nan nan nan nan nan nan nan nan nan nan nan nan nan 233 nan nan 242 nan 240 nan nan nan nan nan 238 244 250 253 253 254 253 249 241 233 233 234 235 234 233 233 232 234 236 237 239 243 247 251 256 261 265 268 270 273 276 280 284 nan 295 nan nan nan nan nan nan nan nan nan nan nan nan nan nan nan nan nan nan nan nan
nan nan nan nan nan nan nan nan nan nan nan nan nan nan nan nan nan nan nan nan nan nan nan 240 nan nan nan nan nan nan nan nan 247 254 256 249 245 242 238 235 235 235 236 234 234 234 231 229 231 233 235 239 243 248 253 258 263 266 270 273 275 279 283 nan nan nan nan nan nan nan nan nan nan nan nan nan nan nan nan nan nan nan nan nan nan
nan nan nan nan nan nan nan nan nan nan nan nan nan nan nan nan nan nan nan nan nan nan nan nan 237 nan nan nan nan nan nan nan nan nan 244 240 237 237 234 230 228 229 231 231 230 229 228 nan 232 234 236 239 243 248 252 256 260 263 267 271 274 279 283 286 289 nan nan nan nan nan nan nan nan nan nan nan nan nan nan nan nan nan nan nan nan
nan nan nan nan nan nan nan nan nan nan nan nan nan nan nan nan nan nan nan nan nan nan nan nan 236 236 237 235 232 nan nan nan nan nan 239 nan nan 235 233 nan nan nan nan 228 230 nan nan nan 233 236 239 243 246 248 252 256 259 262 265 269 275 280 nan nan nan nan nan nan nan nan nan nan nan nan nan nan nan nan nan nan nan nan nan nan nan
nan nan nan nan nan nan nan nan nan nan nan nan nan nan nan nan nan nan nan nan nan nan nan nan nan nan nan nan 229 nan nan nan nan nan nan nan nan nan nan nan nan nan nan nan nan nan nan 237 239 241 243 245 246 249 252 256 260 263 266 269 272 nan nan nan nan nan nan nan nan nan nan nan nan nan nan nan nan nan nan nan nan nan nan nan nan
nan nan nan nan nan nan nan nan nan nan nan nan nan nan nan nan nan nan nan nan nan nan nan nan nan nan nan nan nan nan nan nan nan nan nan nan nan nan nan nan nan nan nan nan nan nan nan 242 245 247 249 249 249 250 254 258 261 265 nan 271 272 nan nan nan nan nan nan nan nan nan nan nan nan nan nan nan nan nan nan nan nan nan nan nan nan
nan nan nan nan nan nan nan nan nan nan nan nan nan nan nan nan nan nan nan nan nan nan nan nan nan nan nan nan nan nan nan 231 nan nan nan nan nan nan nan nan nan nan nan nan nan nan nan nan 247 249 250 251 253 256 259 263 267 nan nan nan nan nan nan nan nan nan nan nan nan nan nan nan nan nan nan nan nan nan nan nan nan nan nan nan nan
nan nan nan nan nan nan nan nan nan nan nan nan nan nan nan nan nan nan nan nan nan nan nan nan nan nan nan nan nan nan nan nan 234 nan nan nan nan nan nan nan nan nan nan nan 240 241 244 247 249 251 253 nan nan 262 265 268 269 nan nan nan nan nan nan nan nan nan nan nan nan nan nan nan nan nan nan nan nan nan nan nan nan nan nan nan nan
nan nan nan nan nan nan nan nan nan nan nan nan nan nan nan nan nan nan nan nan nan nan nan nan nan nan nan nan nan nan nan nan nan nan nan nan nan nan nan nan nan 238 239 241 nan nan 246 nan 249 251 253 nan nan nan nan nan nan nan nan nan nan nan nan nan nan nan nan nan nan nan nan nan nan nan nan nan nan nan nan nan nan nan nan nan nan